COSMOS 1275 DEB, 39960

Orbit data source: Space-Track

COSMOS 1275 DEB, 39960 is space debris in LEO originally from a launch on Thu, 04 Jun 1981 UTC launched from the Plesetsk Missile And Space Complex (PKMTR). Debris objects in space refer to the collection of defunct objects orbiting the Earth. Examples of debris include non-operational satellites, rocket bodies, and fragments generated from explosions, collisions, or faulty payload assembly.

Loading next visibility...
Identifier
39960, 1981-053NW
Orbit
LEO
Country
Flag of CISCIS
Related business
Manufacturer
Unknown
Mission
Spacecraft
Bus & Motor
Unknown
Mass
Unknown
Launch date (UTC)
1981-06-04 (44 years ago)
Launch vehicle
Unknown
Launch site
Plesetsk Missile And Space Complex (PKMTR)
Object type
Payload
Rocket body
Debris
Shape & HBR
Unknown shape, 0.1 m
Radar Cross Section
Small (<0.1 m²)

Expand to show TLE details & history
Last TLE update: 2 days ago

TLE from 2 days ago
0 COSMOS 1275 DEB
1 39960U 81053NW  25300.35042748  .00000782  00000-0  10785-2 0  9997
2 39960  83.1456 336.4561 0237134 291.6466  65.9570 13.46553450540836
Epoch: 2025-10-27T08:24Z
TLE epoch observation values (Epoch: 2025-10-27T08:24:36.934Z)
Latitude
0.00008°
Longitude
174.34869°
Altitude
1,019.267 km
Speed
7.376 km/s
True Right ascension
22h 25m 49s
True Declination
0° 00' 00"
Sunlit
Object was in full shadow at epoch
Visualization orbit readout
Latitude
Unknown
Longitude
Unknown
Altitude
Unknown
Speed
Unknown
Apparent Right ascension
Unknown
Apparent Declination
Unknown
Sunlit
N/A
Visualization observer readout
Local Sidereal Time
06:56:07
Azimuth
Unknown
Elevation
Unknown
Doppler factor
Unknown
Orbital elements
Apogee altitude
1,259.053 km
Perigee altitude
905.236 km
Semi-major axis
7,460.282 km
Eccentricity
0.02371
Inclination
83.1456°
RAAN
336.4561°
Arg. of periapsis
291.6466°
True anomaly
68.46811°
Mean anomaly
65.957°
Eccentric anomaly
67.2096°
Mean motion
3.3683 °/min
Orbital period
106.88 mins
BSTAR
0.0010785
Loading maneuver chart data...
Computing Atmospheric mass density...
Loading historical data...
Loading historical data...
Loading historical data...
Loading historical data...
Loading historical data...
Loading historical data...
Loading historical data...

Documentation

Showing up to 5 results
|